Preview of NWS' New Version of Forecast
This preview is not operational and should not be used for support decisions.

Regional Weather Roundup (RWR)

Issued by National Weather Service (NWS)

                            
000
ASUS45 KABQ 190010
RWRNM 
NEW MEXICO REGIONAL WEATHER ROUNDUP
NATIONAL WEATHER SERVICE ALBUQUERQUE NM
600 PM MDT SUN AUG 18 2019

NOTE: "FAIR" MEANS FEW OR NO CLOUDS BELOW 12,000 FEET AGL WITH NO
       SIGNIFICANT WEATHER OR OBSTRUCTIONS TO VISION.

      THIS PRODUCT IS RELEASED AS TWO VERSIONS.  ONE VERSION NEAR
      THE TOP OF THE HOUR CONTAINING PRELIMINARY DATA FROM ALBUQUERQUE
      AND OTHER STATIONS.  A FINAL VERSION WITH ADDITIONAL DATA IS 
      ISSUED ABOUT 10 MINUTES AFTER THE HOUR.
 
NMZ501-503-504-510>518-190100-
NORTHWEST PLATEAU/NORTHCENTRAL MOUNTAINS
  
CITY           SKY/WX    TMP DP  RH WIND       PRES   REMARKS
FARMINGTON     FAIR      92  19   7 VRB3      30.07F                  
6HR MIN TEMP:  83; 6HR MAX TEMP:  94;                                

LOS ALAMOS       N/A     84  23  10 S8G16     30.23R                  
SANTA FE       FAIR      87  25  10 SW12      30.14S                  
6HR MIN TEMP:  83; 6HR MAX TEMP:  91;                                

TAOS             N/A     86  19   8 W6        30.21S                  
ANGEL FIRE     FAIR      75  28  17 W8        30.32S                  

$$
NMZ402-403-502-505>509-190100-
WESTCENTRAL MOUNTAINS/SOUTHWEST MOUNTAINS
  
CITY           SKY/WX    TMP DP  RH WIND       PRES   REMARKS
GALLUP         FAIR      86  23  10 SW8       30.18S                  
6HR MIN TEMP:  84; 6HR MAX TEMP:  90;                                

GRANTS         FAIR      86  27  11 CALM      30.18S                  
SILVER CITY    FAIR      90  32  12 W8G17     30.09S                  

$$
NMZ407-409-411-412-190100-
SOUTHERN DESERTS
  
CITY           SKY/WX    TMP DP  RH WIND       PRES   REMARKS
DEMING         FAIR      95  28   9 W12G21    29.99S                  
6HR MIN TEMP:  94; 6HR MAX TEMP:  98;                                

LAS CRUCES     FAIR      97  34  11 W7G16     29.99F                  
HOLLOMAN AFB   FAIR      99  35  11 W9        29.96F                  
ALAMOGORDO     FAIR      99  32   9 SW3       29.96S                  
T OR C         FAIR      95  31  10 E5        30.01F                  
6HR MIN TEMP:  92; 6HR MAX TEMP:  98;                                


$$
NMZ519>523-190100-
CENTRAL VALLEYS/CENTRAL HIGHLANDS
  
CITY           SKY/WX    TMP DP  RH WIND       PRES   REMARKS
ALBUQUERQUE    PTSUNNY   92  27   9 S6        30.06S                  
6HR MIN TEMP:  86; 6HR MAX TEMP:  94;                                

DOUBLE EAGLE   PTSUNNY   90  32  12 S9        30.11S                  
MORIARTY ARPT  FAIR      92  29  10 W13       30.15S                  
6HR MIN TEMP:  88; 6HR MAX TEMP:  95;                                

CLINES CORNERS FAIR      87  27  11 NW15      30.21S                  
6HR MIN TEMP:  85; 6HR MAX TEMP:  90;                                

BELEN          FAIR      92  27   9 SE8       30.06S                  
6HR MIN TEMP:  86; 6HR MAX TEMP:  95;                                

SOCORRO        FAIR      94  28   9 CALM      30.02S                  
6HR MIN TEMP:  92; 6HR MAX TEMP:  97;                                


$$
NMZ524>526-539-540-190100-
SOUTHCENTRAL MOUNTAINS
  
CITY           SKY/WX    TMP DP  RH WIND       PRES   REMARKS
RUIDOSO        PTSUNNY   84  34  16 SW3       30.21S                  

$$
NMZ527>531-190100-
NORTHEAST HIGHLANDS/NORTHEAST PLAINS
  
CITY           SKY/WX    TMP DP  RH WIND       PRES   REMARKS
LAS VEGAS      FAIR      88  21   8 SW12      30.17S                  
6HR MIN TEMP:  85; 6HR MAX TEMP:  90;                                

RATON          FAIR      88  33  14 SW8       30.10S                  
6HR MIN TEMP:  86; 6HR MAX TEMP:  92;                                

CLAYTON        FAIR      89  51  27 E10       30.04S                  
6HR MIN TEMP:  88; 6HR MAX TEMP:  93;                                


$$
NMZ532>537-190100-
EASTCENTRAL PLAINS
  
CITY           SKY/WX    TMP DP  RH WIND       PRES   REMARKS
TUCUMCARI      FAIR     101  36  10 E12       29.90F HX  95           
6HR MIN TEMP:  93; 6HR MAX TEMP: 103;                                

CANNON AFB     FAIR      97  34  11 W6        29.96F                  
6HR MIN TEMP:  96; 6HR MAX TEMP: 101;                                

CLOVIS AIRPORT FAIR      96  43  16 S8        29.96S                  

$$
NMZ028-029-538-190100-
SOUTHEAST PLAINS
  
CITY           SKY/WX    TMP DP  RH WIND       PRES   REMARKS
ROSWELL        FAIR     104  39  10 CALM      29.88F HX  98           
6HR MIN TEMP:  97; 6HR MAX TEMP: 107;                                

ARTESIA        FAIR     102  46  15 S7        29.89F HX  98           
CARLSBAD       FAIR     102  43  13 MISG      29.85F HX  97           
6HR MIN TEMP:  98; 6HR MAX TEMP: 104;                                

HOBBS          CLOUDY    99  41  13 VRB5      29.90F                  


$$